When you browse on this site, cookies collect data to enhance your experience and personalize the content and advertising you see.
Visit our Privacy Policy to learn more. By continuing to use the site, you agree to this use of cookies and data.
  • In Spain
  • List of Countries
  • For 7 days
  • Water Temperature
  • Satellite Maps
  • Weather Map
  • Weather Widgets
  • user-avatar
    Login

    Hourly Weather San Miguel de Tucumán

    Today, 21 July, Sunday

    Time Temperature Precipitation Wind Pressure Humidity
    00:00 +19°C° 0 mm 1 mps 711 mmHg 56%
    01:00 +18°C° 0 mm 1 mps 710 mmHg 52%
    02:00 +18°C° 0 mm 1 mps 710 mmHg 49%
    03:00 +18°C° 0 mm 1 mps 709 mmHg 46%
    04:00 +18°C° 0 mm 1 mps 708 mmHg 44%
    05:00 +16°C° 0 mm 1 mps 708 mmHg 42%
    06:00 +18°C° 0 mm 1 mps 708 mmHg 39%
    07:00 +18°C° 0 mm 1 mps 709 mmHg 37%
    08:00 +18°C° 0 mm 2 mps 709 mmHg 34%
    09:00 +22°C° 0 mm 1 mps 710 mmHg 29%
    10:00 +26°C° 0 mm 1 mps 710 mmHg 24%
    11:00 +29°C° 0 mm 1 mps 710 mmHg 19%
    12:00 +30°C° 0 mm 1 mps 710 mmHg 19%
    13:00 +31°C° 0 mm 2 mps 710 mmHg 19%
    14:00 +31°C° 0 mm 2 mps 709 mmHg 19%
    15:00 +30°C° 0 mm 2 mps 709 mmHg 22%
    16:00 +28°C° 0 mm 2 mps 709 mmHg 25%
    17:00 +27°C° 0 mm 1 mps 710 mmHg 29%
    18:00 +25°C° 0 mm 1 mps 710 mmHg 28%
    19:00 +24°C° 0 mm 2 mps 711 mmHg 28%
    20:00 +21°C° 0 mm 2 mps 712 mmHg 27%
    21:00 +21°C° 0 mm 2 mps 712 mmHg 29%
    22:00 +21°C° 0 mm 1 mps 713 mmHg 31%
    23:00 +21°C° 0 mm 1 mps 714 mmHg 33%

    Tomorrow, 22 July, Monday

    Time Temperature Precipitation Wind Pressure Humidity
    00:00 +19°C° 0 mm 2 mps 714 mmHg 45%
    01:00 +19°C° 0 mm 2 mps 715 mmHg 56%
    02:00 +18°C° 0 mm 3 mps 715 mmHg 68%
    03:00 +17°C° 0.1 mm 3 mps 716 mmHg 70%
    04:00 +15°C° 0.1 mm 2 mps 717 mmHg 72%
    05:00 +14°C° 0.1 mm 2 mps 718 mmHg 74%
    06:00 +14°C° 0.1 mm 2 mps 719 mmHg 75%
    07:00 +13°C° 0.1 mm 2 mps 720 mmHg 76%
    08:00 +13°C° 0.1 mm 2 mps 721 mmHg 77%
    09:00 +13°C° 0 mm 2 mps 721 mmHg 68%
    10:00 +13°C° 0 mm 3 mps 721 mmHg 60%
    11:00 +13°C° 0 mm 3 mps 721 mmHg 51%
    12:00 +14°C° 0 mm 3 mps 721 mmHg 45%
    13:00 +16°C° 0 mm 3 mps 720 mmHg 39%
    14:00 +16°C° 0 mm 3 mps 720 mmHg 32%
    15:00 +16°C° 0 mm 3 mps 720 mmHg 31%
    16:00 +14°C° 0 mm 3 mps 720 mmHg 30%
    17:00 +15°C° 0 mm 2 mps 720 mmHg 29%
    18:00 +14°C° 0 mm 2 mps 720 mmHg 31%
    19:00 +13°C° 0 mm 1 mps 721 mmHg 34%
    20:00 +11°C° 0 mm 1 mps 722 mmHg 36%
    21:00 +11°C° 0 mm 1 mps 722 mmHg 36%
    22:00 +11°C° 0 mm 1 mps 723 mmHg 36%
    23:00 +10°C° 0 mm 1 mps 723 mmHg 36%

    Day after tomorrow, 23 July, Tuesday

    Time Temperature Precipitation Wind Pressure Humidity
    00:00 +10°C° 0 mm 1 mps 723 mmHg 36%
    01:00 +10°C° 0 mm 1 mps 723 mmHg 36%
    02:00 +9°C° 0 mm 2 mps 723 mmHg 36%
    03:00 +8°C° 0 mm 2 mps 723 mmHg 37%
    04:00 +8°C° 0 mm 2 mps 723 mmHg 37%
    05:00 +7°C° 0 mm 2 mps 723 mmHg 38%
    06:00 +8°C° 0 mm 2 mps 723 mmHg 37%
    07:00 +9°C° 0 mm 1 mps 724 mmHg 37%
    08:00 +9°C° 0 mm 1 mps 724 mmHg 36%
    09:00 +10°C° 0 mm 2 mps 725 mmHg 33%
    10:00 +12°C° 0 mm 2 mps 725 mmHg 30%
    11:00 +13°C° 0 mm 2 mps 725 mmHg 27%
    12:00 +14°C° 0 mm 2 mps 724 mmHg 26%
    13:00 +14°C° 0 mm 3 mps 724 mmHg 24%
    14:00 +16°C° 0 mm 3 mps 723 mmHg 22%
    15:00 +14°C° 0 mm 3 mps 723 mmHg 24%
    16:00 +15°C° 0 mm 2 mps 723 mmHg 26%
    17:00 +14°C° 0 mm 2 mps 723 mmHg 28%
    18:00 +12°C° 0 mm 2 mps 724 mmHg 33%
    19:00 +10°C° 0 mm 1 mps 725 mmHg 38%
    20:00 +8°C° 0 mm 1 mps 726 mmHg 43%
    21:00 +8°C° 0 mm 1 mps 726 mmHg 45%
    22:00 +8°C° 0 mm 1 mps 727 mmHg 46%
    23:00 +7°C° 0 mm 1 mps 728 mmHg 47%

    24 July, Wednesday

    Time Temperature Precipitation Wind Pressure Humidity
    00:00 +7°C° 0 mm 1 mps 728 mmHg 48%
    01:00 +7°C° 0 mm 1 mps 728 mmHg 49%
    02:00 +7°C° 0 mm 1 mps 728 mmHg 49%
    03:00 +6°C° 0 mm 1 mps 728 mmHg 50%
    04:00 +6°C° 0 mm 1 mps 728 mmHg 51%
    05:00 +6°C° 0 mm 1 mps 728 mmHg 52%
    06:00 +6°C° 0 mm 1 mps 729 mmHg 50%
    07:00 +7°C° 0 mm 1 mps 729 mmHg 49%
    08:00 +7°C° 0 mm 0 mps 730 mmHg 48%
    09:00 +10°C° 0 mm 1 mps 730 mmHg 42%
    10:00 +12°C° 0 mm 1 mps 730 mmHg 37%
    11:00 +15°C° 0 mm 1 mps 730 mmHg 31%
    12:00 +15°C° 0 mm 2 mps 730 mmHg 29%
    13:00 +16°C° 0 mm 2 mps 729 mmHg 27%
    14:00 +17°C° 0 mm 2 mps 729 mmHg 25%
    15:00 +16°C° 0 mm 2 mps 729 mmHg 26%
    16:00 +16°C° 0 mm 2 mps 728 mmHg 27%
    17:00 +15°C° 0 mm 2 mps 728 mmHg 28%
    18:00 +13°C° 0 mm 2 mps 729 mmHg 33%
    19:00 +11°C° 0 mm 1 mps 729 mmHg 38%
    20:00 +10°C° 0 mm 1 mps 730 mmHg 42%
    21:00 +9°C° 0 mm 1 mps 730 mmHg 43%
    22:00 +9°C° 0 mm 1 mps 730 mmHg 44%
    23:00 +9°C° 0 mm 1 mps 730 mmHg 45%

    25 July, Thursday

    Time Temperature Precipitation Wind Pressure Humidity
    00:00 +8°C° 0 mm 1 mps 730 mmHg 46%
    01:00 +8°C° 0 mm 1 mps 730 mmHg 47%
    02:00 +7°C° 0 mm 1 mps 729 mmHg 48%
    03:00 +7°C° 0 mm 1 mps 729 mmHg 49%
    04:00 +7°C° 0 mm 1 mps 729 mmHg 50%
    05:00 +6°C° 0 mm 1 mps 729 mmHg 51%
    06:00 +7°C° 0 mm 1 mps 729 mmHg 49%
    07:00 +7°C° 0 mm 1 mps 729 mmHg 48%
    08:00 +8°C° 0 mm 1 mps 730 mmHg 47%
    09:00 +10°C° 0 mm 1 mps 730 mmHg 41%
    10:00 +13°C° 0 mm 1 mps 730 mmHg 35%
    11:00 +15°C° 0 mm 1 mps 730 mmHg 30%
    12:00 +16°C° 0 mm 2 mps 729 mmHg 28%
    13:00 +17°C° 0 mm 2 mps 728 mmHg 27%
    14:00 +18°C° 0 mm 2 mps 727 mmHg 26%
    15:00 +17°C° 0 mm 2 mps 727 mmHg 27%
    16:00 +16°C° 0 mm 2 mps 727 mmHg 29%
    17:00 +16°C° 0 mm 2 mps 727 mmHg 30%
    18:00 +14°C° 0 mm 2 mps 727 mmHg 35%
    19:00 +12°C° 0 mm 1 mps 727 mmHg 39%
    20:00 +10°C° 0 mm 1 mps 727 mmHg 43%
    21:00 +9°C° 0 mm 1 mps 727 mmHg 44%
    22:00 +9°C° 0 mm 1 mps 727 mmHg 45%
    23:00 +8°C° 0 mm 1 mps 727 mmHg 47%

    26 July, Friday

    Time Temperature Precipitation Wind Pressure Humidity
    00:00 +8°C° 0 mm 1 mps 727 mmHg 48%
    01:00 +7°C° 0 mm 1 mps 727 mmHg 49%
    02:00 +7°C° 0 mm 1 mps 727 mmHg 51%
    03:00 +7°C° 0 mm 1 mps 726 mmHg 52%
    04:00 +6°C° 0 mm 1 mps 726 mmHg 52%
    05:00 +6°C° 0 mm 1 mps 726 mmHg 53%
    06:00 +7°C° 0 mm 1 mps 726 mmHg 52%
    07:00 +7°C° 0 mm 1 mps 727 mmHg 50%
    08:00 +7°C° 0 mm 0 mps 727 mmHg 48%
    09:00 +10°C° 0 mm 1 mps 727 mmHg 42%
    10:00 +13°C° 0 mm 1 mps 727 mmHg 36%
    11:00 +16°C° 0 mm 1 mps 727 mmHg 30%
    12:00 +17°C° 0 mm 2 mps 727 mmHg 29%
    13:00 +18°C° 0 mm 2 mps 726 mmHg 27%
    14:00 +19°C° 0 mm 2 mps 725 mmHg 26%
    15:00 +18°C° 0 mm 2 mps 725 mmHg 27%
    16:00 +18°C° 0 mm 2 mps 725 mmHg 29%
    17:00 +17°C° 0 mm 2 mps 724 mmHg 31%
    18:00 +15°C° 0 mm 2 mps 724 mmHg 36%
    19:00 +13°C° 0 mm 1 mps 725 mmHg 41%
    20:00 +11°C° 0 mm 1 mps 725 mmHg 46%
    21:00 +10°C° 0 mm 1 mps 725 mmHg 47%
    22:00 +10°C° 0 mm 1 mps 725 mmHg 49%
    23:00 +9°C° 0 mm 1 mps 725 mmHg 50%
    Show more